Private Wetterstation Kalkriese

Lat.: 52° 24' 26" Nord • Long.: 8° 04' 41" Ost • Höhe: 57 m ü. NN
Mittwoch, 01. Dezember 2021 • 18:41:16 (UTC+1)

Tagesübersicht
Mittwoch, 1. Dezember 2021


Werte bei Min., Max., etc. sind Tagesdaten (Beginn 00:00 Uhr), Diagramme zeigen den Verlauf der letzten 24 Stunden.

Außentemperatur (2 m ü. Erdboden)

Bodentemperatur (5 cm ü. Erdboden)

Minimum: 6,8 °C • 18:05 Minimum: 5,0 °C • 17:30
Maximum: 9,5 °C • 03:35 Maximum: 8,9 °C • 02:45
Durchschnitt: 8,4 °C Durchschnitt: 7,6 °C
mini_currentt mini_currentt2

Taupunkt

Windchill

Minimum: 4,1 °C • 18:25 Minimum: 2,6 °C • 18:15
Maximum: 8,9 °C • 03:00 Maximum: 6,9 °C • 03:20
Durchschnitt: 7,3 °C Durchschnitt: 5,1 °C
mini_currenttp mini_currentwc

Außenluftfeuchtigkeit

Luftdruck

Minimum: 83 % • 18:20 Minimum: 983,8 hPa • 15:05
Maximum: 97 % • 02:05 Maximum: 1000,1 hPa • 00:00
Durchschnitt: 93 % Durchschnitt: 989,2 hPa
mini_currentf mini_currentd

Niederschlag

heutiger Tag: 5,6 l/m² akt. Woche: 9,0 l/m²
letzten 24 Std.: 6,0 l/m² akt. Monat: 5,6 l/m²
Regendauer Tag: 1:55 Stunden akt. Jahr: 568,4 l/m²
mini_currentr mini_currentxt

Windgeschwindigkeit

Windböen

Maximum: 33,8 km/h • 5 Bft • W-NW • 11:35 Maximum: 62,8 km/h • 7 Bft • W-SW • 06:00
Durchschnitt: 22,7 km/h • 3 Bft Durchschnitt: 39,7 km/h • 3 Bft
Dom. Windrichtung: SW Dom. Windrichtung: SW
mini_currentw mini_currentwb
mini_currentwr mini_currentwdg

Windrichtung • Windstärke • Windböen

ddis_f_current ddis_current
windbft_current

Wolkenuntergrenze (berechnet)

Theta-E / Äquivalenttemperatur

mini_currentcl mini_currentt7


Wetterdaten Tagesverlauf

Stundenwerte akt. Tag
 
Uhrzeit AT +2 m BT +5 cm ThetaE LF LD WG WR Solar
00:00 7,1 °C 6,7 °C 22,3 °C 96 % 1000,0 hPa 4,9 km/h S-SW 0 W/m²
01:00 7,9 °C 7,2 °C 23,5 °C 96 % 998,5 hPa 10,9 km/h SW 0 W/m²
02:00 8,7 °C 8,3 °C 25,2 °C 96 % 996,9 hPa 15,6 km/h S-SW 0 W/m²
03:00 9,4 °C 8,9 °C 27,1 °C 97 % 995,4 hPa 19,8 km/h S-SW 0 W/m²
04:00 9,4 °C 8,9 °C 27,2 °C 96 % 993,8 hPa 28,7 km/h SW 0 W/m²
05:00 9,2 °C 8,3 °C 26,8 °C 95 % 992,6 hPa 26,0 km/h S-SW 0 W/m²
06:00 9,1 °C 8,3 °C 26,2 °C 94 % 991,4 hPa 32,1 km/h SW 0 W/m²
07:00 8,7 °C 7,8 °C 25,4 °C 93 % 989,9 hPa 20,6 km/h SW 0 W/m²
08:00 8,1 °C 7,2 °C 24,4 °C 94 % 988,8 hPa 25,0 km/h SW 0 W/m²
09:00 7,9 °C 7,2 °C 23,8 °C 94 % 987,7 hPa 25,8 km/h SW 7 W/m²
10:00 8,2 °C 7,8 °C 24,2 °C 94 % 986,8 hPa 27,7 km/h S-SW 18 W/m²
11:00 8,5 °C 7,8 °C 24,8 °C 94 % 985,8 hPa 27,4 km/h SW 26 W/m²
12:00 8,8 °C 8,3 °C 25,5 °C 93 % 984,9 hPa 27,6 km/h W-SW 39 W/m²
13:00 8,8 °C 8,3 °C 25,5 °C 93 % 984,6 hPa 23,0 km/h W 76 W/m²
14:00 8,7 °C 8,3 °C 24,6 °C 90 % 984,3 hPa 17,7 km/h S-SW 58 W/m²
15:00 8,7 °C 7,2 °C 24,5 °C 88 % 983,9 hPa 24,3 km/h SW 18 W/m²
16:00 7,4 °C 6,7 °C 23,1 °C 92 % 984,5 hPa 20,1 km/h W 4 W/m²
17:00 7,4 °C 5,6 °C 21,9 °C 87 % 985,0 hPa 24,4 km/h W 0 W/m²
18:00 6,9 °C 5,0 °C 20,6 °C 85 % 986,1 hPa 20,3 km/h W-SW 0 W/m²
19:00 -- °C -- °C -- °C -- % -- hPa -- km/h -- -- W/m²
20:00 -- °C -- °C -- °C -- % -- hPa -- km/h -- -- W/m²
21:00 -- °C -- °C -- °C -- % -- hPa -- km/h -- -- W/m²
22:00 -- °C -- °C -- °C -- % -- hPa -- km/h -- -- W/m²
23:00 -- °C -- °C -- °C -- % -- hPa -- km/h -- -- W/m²


Wetterdaten Verlauf der letzten 24 Stunden

15 Min. - Stundenwerte
 
Uhrzeit AT +2 m BT +5 cm ThetaE LF LD WG WR Solar
17:30 (vor 1 Std.) 7,0 °C 5,0 °C 21,1 °C 86 % 985,5 hPa 22,0 km/h W-SW 0 W/m²
16:30 (vor 2 Std.) 7,8 °C 6,7 °C 23,1 °C 90 % 984,7 hPa 25,4 km/h W-SW 0 W/m²
15:30 (vor 3 Std.) 8,2 °C 7,2 °C 24,0 °C 90 % 984,0 hPa 23,1 km/h S-SW 2 W/m²
14:30 (vor 4 Std.) 8,7 °C 7,8 °C 24,6 °C 88 % 983,9 hPa 24,3 km/h SW 33 W/m²
13:30 (vor 5 Std.) 8,6 °C 7,8 °C 25,2 °C 91 % 984,5 hPa 21,0 km/h SW 75 W/m²
12:30 (vor 6 Std.) 8,8 °C 8,3 °C 25,7 °C 93 % 984,9 hPa 20,9 km/h W-SW 29 W/m²
11:30 (vor 7 Std.) 8,8 °C 8,3 °C 25,5 °C 94 % 985,2 hPa 31,0 km/h SW 64 W/m²
10:30 (vor 8 Std.) 8,3 °C 7,8 °C 24,6 °C 94 % 986,3 hPa 28,0 km/h S-SW 19 W/m²
9:30 (vor 9 Std.) 7,9 °C 7,2 °C 24,0 °C 94 % 987,2 hPa 26,5 km/h S-SW 4 W/m²
8:30 (vor 10 Std.) 7,9 °C 7,2 °C 24,0 °C 94 % 988,1 hPa 22,8 km/h W 0 W/m²
7:30 (vor 11 Std.) 8,4 °C 7,2 °C 24,8 °C 93 % 989,3 hPa 24,2 km/h S-SW 0 W/m²
6:30 (vor 12 Std.) 8,8 °C 7,8 °C 25,8 °C 94 % 990,8 hPa 28,6 km/h S-SW 0 W/m²
5:30 (vor 13 Std.) 9,1 °C 8,3 °C 26,6 °C 95 % 991,8 hPa 25,5 km/h SW 0 W/m²
4:30 (vor 14 Std.) 9,3 °C 8,3 °C 27,2 °C 96 % 993,1 hPa 25,4 km/h SW 0 W/m²
3:30 (vor 15 Std.) 9,4 °C 8,9 °C 27,2 °C 96 % 994,5 hPa 21,3 km/h SW 0 W/m²
2:30 (vor 16 Std.) 9,1 °C 8,3 °C 26,0 °C 97 % 996,2 hPa 16,3 km/h SW 0 W/m²
1:30 (vor 17 Std.) 8,3 °C 7,8 °C 24,6 °C 96 % 997,7 hPa 9,2 km/h S-SW 0 W/m²
0:30 (vor 18 Std.) 7,4 °C 7,2 °C 22,5 °C 96 % 999,4 hPa 10,2 km/h S-SW 0 W/m²
23:30 (vor 19 Std.) 7,1 °C 6,7 °C 21,9 °C 95 % 1001,0 hPa 6,9 km/h S-SW 0 W/m²
22:30 (vor 20 Std.) 6,8 °C 6,1 °C 21,5 °C 95 % 1002,2 hPa 4,0 km/h S-SW 0 W/m²
21:30 (vor 21 Std.) 6,6 °C 6,1 °C 20,9 °C 95 % 1002,9 hPa 5,6 km/h SW 0 W/m²
20:30 (vor 22 Std.) 6,3 °C 5,6 °C 20,4 °C 94 % 1003,3 hPa 3,7 km/h W-SW 0 W/m²
19:30 (vor 23 Std.) 6,4 °C 4,4 °C 20,6 °C 93 % 1003,2 hPa 8,7 km/h W 0 W/m²
18:30 (vor 24 Std.) 6,6 °C 5,6 °C 20,6 °C 93 % 1003,1 hPa 12,6 km/h W-SW 0 W/m²